Hourly Data Report for October 03, 2017

All times are specified in Local Standard Time (LST). Add 1 hour to adjust for Daylight Saving Time where and when it is observed.

SHEARWATER RCS
NOVA SCOTIA

44°37'47.000" N
63°30'48.000" W
24.00 m
8205092
71264
AAW

Download Data

Hourly Data (October 2017)
Hourly Data Report for October 3, 2017
Temp Definition
°C
Dew Point Temp Definition
°C
Rel Hum Definition
%
Wind Dir Definition
10's deg

Wind Spd Definition
km/h
Visibility Definition
km
Stn Press Definition
kPa
Hmdx Definition


Wind Chill Definition


Weather Definition


TIME
00:00 6.5 2.7 77 32 13   103.02     LegendNANA
01:00 6.1 3.0 81 32 9   103.08     LegendNANA
02:00 6.1 3.3 82 33 11   103.12     LegendNANA
03:00 6.6 3.8 82 33 14   103.11     LegendNANA
04:00 6.4 4.0 85 33 11   103.17     LegendNANA
05:00 5.8 3.9 88 34 6   103.22     LegendNANA
06:00 5.9 4.0 87 34 9   103.28     LegendNANA
07:00 6.4 4.5 88 33 7   103.33     LegendNANA
08:00 8.9 5.2 78 33 8   103.37     LegendNANA
09:00 10.9 5.0 67 36 10   103.37     LegendNANA
10:00 12.6 4.1 56 1 13   103.37     LegendNANA
11:00 13.5 4.0 53 32 8   103.33     LegendNANA
12:00 14.5 3.0 46 31 14   103.28     LegendNANA
13:00 15.7 4.5 47 27 10   103.25     LegendNANA
14:00 15.4 4.1 47 29 15   103.21     LegendNANA
15:00 14.0 4.5 53 31 14   103.17     LegendNANA
16:00 13.1 3.6 52 32 10   103.11     LegendNANA
17:00 12.4 4.3 58 33 9   103.07     LegendNANA
18:00 11.0 4.9 66 34 4   103.01     LegendNANA
19:00 9.7 5.4 74 34 3   103.01     LegendNANA
20:00 9.2 5.2 76 34 3   103.02     LegendNANA
21:00 8.7 5.0 78 36 2   102.99     LegendNANA
22:00 7.2 5.1 86 17 1   102.94     LegendNANA
23:00 9.6 4.4 70 26 7   102.91     LegendNANA

Notes on Data Quality.

Legend

  • E = Estimated
  • M = Missing
  • NA = Not Available
  • ‡ = Partner data that is not subject to review by the National Climate Archives
Date modified: